Regional Weather Roundup
Issued by NWS

Home | Current Version | Previous Version | Text Only | Print | Product List | Glossary Off
Versions: 1 2 3 4 5 6 7 8 9 10 11 12 13 14 15 16 17 18 19 20 21 22 23 24 25 26 27 28 29 30 31 32 33 34 35 36 37 38 39 40 41 42 43 44 45 46 47 48 49 50

000
ASUS45 KABQ 222310
RWRNM
WEATHER ROUNDUP FOR NEW MEXICO
NATIONAL WEATHER SERVICE ALBUQUERQUE NM
500 PM MDT WED OCT 22 2014

NOTE: "FAIR" MEANS FEW OR NO CLOUDS BELOW 12,000 FEET AGL WITH NO
       SIGNIFICANT WEATHER OR OBSTRUCTIONS TO VISION.

      THIS PRODUCT IS RELEASED AS TWO VERSIONS.  ONE VERSION NEAR
      THE TOP OF THE HOUR CONTAINING PRELIMINARY DATA FROM ALBUQUERQUE
      AND OTHER STATIONS.  A FINAL VERSION WITH ADDITIONAL DATA IS
      ISSUED ABOUT 10 MINUTES AFTER THE HOUR.

NMZ501-503-504-510>518-230000-
NORTHWEST PLATEAU/NORTHCENTRAL MOUNTAINS

CITY           SKY/WX    TMP DP  RH WIND       PRES   REMARKS
FARMINGTON     SUNNY     71  35  26 NW9       30.13S
LOS ALAMOS     MOSUNNY   61  40  46 S5        30.22S
SANTA FE       PTSUNNY   70  37  29 CALM      30.16S
TAOS           MOSUNNY   66  28  24 NW10      30.20S
ANGEL FIRE     FAIR      56  31  39 W5        30.26F

$$
NMZ402-403-502-505>509-230000-
WESTCENTRAL MOUNTAINS/SOUTHWEST MOUNTAINS

CITY           SKY/WX    TMP DP  RH WIND       PRES   REMARKS
GALLUP         SUNNY     68  36  30 SW12      30.19S
GRANTS         SUNNY     66  34  30 N3        30.20S
SILVER CITY    SUNNY     72  45  37 S8        30.17S

$$
NMZ407-409-411-412-230000-
SOUTHERN DESERTS

CITY           SKY/WX    TMP DP  RH WIND       PRES   REMARKS
LORDSBURG      FAIR      73  46  38 MISG      30.09F
DEMING         SUNNY     74  51  44 S7        30.09F
LAS CRUCES     SUNNY     73  47  39 SW5       30.12S
HOLLOMAN AFB   SUNNY     74  49  42 SW5       30.08S
T OR C         SUNNY     73  46  38 S6        30.10S

$$
NMZ519>523-230000-
CENTRAL VALLEYS/CENTRAL HIGHLANDS

CITY           SKY/WX    TMP DP  RH WIND       PRES   REMARKS
ALBUQUERQUE    PTSUNNY   73  38  27 CALM      30.13F
DOUBLE EAGLE   MOSUNNY   70  39  32 SW6       30.16F
MORIARTY ARPT  FAIR      68  33  27 SW3       30.17S
CLINES CORNERS MOSUNNY   64  33  31 W12       30.19S
BELEN          FAIR      73  39  28 W5        30.12S
SOCORRO        FAIR      73  47  38 S5        30.11S

$$
NMZ524>526-539-540-230000-
SOUTHCENTRAL MOUNTAINS

CITY           SKY/WX    TMP DP  RH WIND       PRES   REMARKS
RUIDOSO        MOSUNNY   64  45  48 N12       30.23R

$$
NMZ527>531-230000-
NORTHEAST HIGHLANDS/NORTHEAST PLAINS

CITY           SKY/WX    TMP DP  RH WIND       PRES   REMARKS
LAS VEGAS      MOSUNNY   67  33  28 CALM      30.16R
RATON          PTSUNNY   68  33  27 S9        30.10S
CLAYTON        SUNNY     72  38  29 NE10      30.07R

$$
NMZ532>537-230000-
EASTCENTRAL PLAINS

CITY           SKY/WX    TMP DP  RH WIND       PRES   REMARKS
TUCUMCARI      MOSUNNY   68  57  68 SE10      30.01S
CANNON AFB     SUNNY     74  51  44 SW10      30.06F
CLOVIS AIRPORT SUNNY     73  50  43 S9        30.08F

$$
NMZ028-029-538-230000-
SOUTHEAST PLAINS

CITY           SKY/WX    TMP DP  RH WIND       PRES   REMARKS
ROSWELL        SUNNY     73  56  54 SE9       30.06S
CARLSBAD       MOSUNNY   73  60  63 E6        30.04F
HOBBS          MOSUNNY   72  55  56 CALM      30.09S


$$



USA.gov is the U.S. government's official web portal to all federal, state and local government web resources and services.